{"data":{"norad_id":66876,"epoch":"2026-09-20T11:03:22.791744Z","epoch_age_seconds":87191,"freshness":"FRESH","line1":"1 66876U 25281AE  26263.46068046  .00012094  00000+0  44807-3 0  9995","line2":"2 66876  43.0020 323.4706 0001074 276.6404  83.4325 15.27594847 45961","mean_motion":15.27594847,"eccentricity":0.0001074,"inclination_deg":43.002,"raan_deg":323.4706,"arg_perigee_deg":276.6404,"mean_anomaly_deg":83.4325,"bstar":0.00044807,"rev_number":4596,"period_min":94.265832516258,"perigee_km":482.2677525285,"apogee_km":483.74152575259,"semimajor_km":6861.1416391405,"source":"CELESTRAK","updated_at":"2026-09-21T09:00:36.031716Z"}}